Weather Roundup
Issued by NWS Springfield, MO

Home | Current Version | Previous Version | Text Only | Print | Product List | Glossary On
Versions: 1 2 3 4 5 6 7 8 9 10 11 12 13 14 15 16 17 18 19 20 21 22 23 24 25 26 27 28 29 30 31 32 33 34 35 36 37 38 39 40 41 42 43 44 45 46 47 48 49 50
000
NZUS99 KSGF 250407
HRRSGF

HOURLY WEATHER
NATIONAL WEATHER SERVICE SPRINGFIELD MO
1100 PM CDT MON JUL 24 2017

......SGF CWA......

CITY           SKY/WX    TMP DP  RH WIND       PRES   REMARKS
SPRINGFIELD    CLEAR     78  73  84 CALM      30.02R
JOPLIN         CLEAR     81  73  76 CALM      30.00R
WEST PLAINS    CLOUDY    79  75  87 CALM      30.03R
ROLLA          CLEAR     74  66  76 NE7       30.03R
OSAGE BEACH    CLEAR     75  67  76 NE6       30.03R
BRANSON          N/A     79  72  78 CALM      30.04R

......SURROUNDING SGF CWA......

CITY           SKY/WX    TMP DP  RH WIND       PRES   REMARKS
CHANUTE        CLEAR     79  72  79 SE5       29.99R
PARSONS        CLEAR     76  73  91 CALM      30.00R
COFFEYVILLE    CLEAR     79  73  82 CALM      29.98R
EMPORIA        CLEAR     79  73  82 SE5       29.99R
GROVE OK       CLEAR     82  75  78 CALM      30.01R
ROGERS AR      CLOUDY    80  71  74 W6        30.04R
SILOAM SPRINGS CLEAR     79  68  69 CALM      30.03R
HARRISON AR    PTCLDY    78  72  81 CALM      30.04R
NEAR YELLVILLE PTCLDY    84  68  58 SW3       29.98R

......KANSAS AND MISSOURI......

CITY           SKY/WX    TMP DP  RH WIND       PRES   REMARKS
KANSAS CTY INT CLEAR     78  68  71 E13       30.01R
DOWNTOWN KC    CLEAR     78  69  73 E7        30.00R
COLUMBIA       CLEAR     72  66  81 E6        30.03R
SEDALIA        CLEAR     72  70  93 E3        30.04R
ST JOSEPH      CLEAR     76  70  82 SE5       30.01R
ST LOUIS       CLEAR     79  68  69 E10       30.03
SPIRIT OF STL  CLEAR     78  71  79 NE9       30.01R
KIRKSVILLE     CLEAR     70  66  87 E7        30.05R
WICHITA        CLEAR     82  68  62 S9        29.98R
TOPEKA         CLEAR     78  72  81 E5        29.99R
OLATHE         CLEAR     76  69  79 E7        30.02R

......TENNESSEE......

CITY           SKY/WX    TMP DP  RH WIND       PRES   REMARKS
MEMPHIS        PTCLDY    81  76  84 SW9       29.98F
NASHVILLE      PTCLDY    83  73  72 N6        30.01S

......ARKANSAS.......

CITY           SKY/WX    TMP DP  RH WIND       PRES   REMARKS
FAYETTEVILLE   CLEAR     74  74 100 CALM      30.04R
FT SMITH       CLEAR     83  75  77 SW3       29.98R HX  90
LITTLE ROCK    MOCLDY    82  79  90 S5        30.00R HX  92

......OKLAHOMA.......

CITY           SKY/WX    TMP DP  RH WIND       PRES   REMARKS
TULSA          CLEAR     86  71  60 S7        29.97R HX  91
PONCA CITY     CLEAR     85  68  56 S5        29.98R
MCALESTER      CLEAR     80  71  74 S3        30.00R
OKLAHOMA CITY  PTCLDY    79  69  71 SE7       30.00R

......IOWA............

CITY           SKY/WX    TMP DP  RH WIND       PRES   REMARKS
DES MOINES     CLEAR     74  65  73 E9        30.03R
QUAD CITIES    CLEAR     65  60  84 E5        30.08R

......ILLINOIS........

CITY           SKY/WX    TMP DP  RH WIND       PRES   REMARKS
QUINCY         CLEAR     71  65  81 E7        30.05R
CHICAGO        PTCLDY    68  59  73 NE7       30.11S




USA.gov is the U.S. government's official web portal to all federal, state and local government web resources and services.